Location: ?????
(55.6500°N, 37.2500°E)
Time: 06:53:28
(UTC+00:00)

Cosmos 1743 Rocket - Pass Details

Date: 19 May 2025
Orbit: 599 x 626 km, 82.6° (Epoch: 15 June)

Event Time Altitude Azimuth Distance (km) Brightness Sun altitude
Rises 21:41:49 0° 343° (NNW) 2,927 8.4 -14.3°
Reaches altitude 10° 21:44:10 10° 335° (NNW) 2,013 7.2 -14.3°
Maximum altitude 21:48:17 38° 268° (W) 967 4.5 -14.2°
Enters shadow 21:50:48 20° 213° (SSW) 1,442 4.9 -14.2°
